View from above orbital plane
|
View from above satellite
|
Ground track
|
The orbit data is extracted from the following two-line orbital elements,
1 10962U 78063B 22228.43219052 .00000161 00000-0 57626-4 0 9992
2 10962 74.0815 336.2236 0024172 113.7467 246.6227 14.41358208317405
Epoch (UTC): | 16 August 2022 10:22:21 |
Eccentricity: | 0.0024172 |
inclination: | 74.0815° |
perigee height: | 737 km |
apogee height: | 771 km |
right ascension of ascending node: | 336.2236° |
argument of perigee: | 113.7467° |
revolutions per day: | 14.41358208 |
mean anomaly at epoch: | 246.6227° |
orbit number at epoch: | 31740 |
The dashed part of the orbit path shows where the satellite is in the earth's shadow,
|
|